FW6870 Weather Reports


Display with metric or nautical units.
time (UTC)temp
F
wind
direction
speed
MPH
gust
MPH
rain 1hr
in
rain 24hr
in
rain mn
in
humidity
%
barometer
mb
20260905164537 93 215 4.0 9.0 0.00 0.00 0.00 57 1015.0
20260905163035 92 53 3.0 8.0 0.00 0.00 0.00 56 1015.2
20260905161536 91 202 3.0 10.0 0.00 0.00 0.00 59 1015.3
20260905160034 91 227 4.0 8.0 0.00 0.00 0.00 61 1015.4
20260905153037 89 232 3.0 8.0 0.00 0.00 0.00 66 1015.7
20260905151536 88 324 3.0 7.0 0.00 0.00 0.00 66 1015.7
20260905144543 86 265 3.0 7.0 0.00 0.00 0.00 71 1015.9
20260905143037 84 263 3.0 7.0 0.00 0.00 0.00 74 1015.9
20260905140035 81 308 3.0 8.0 0.00 0.00 0.00 79 1016.1
20260905134538 80 345 4.0 8.0 0.00 0.00 0.00 83 1016.3
20260905131545 78 284 5.0 9.0 0.00 0.00 0.00 85 1016.2
20260905130035 77 267 6.0 11.0 0.00 0.00 0.00 87 1016.1
20260905124535 76 302 5.0 8.0 0.00 0.00 0.00 89 1016.1
20260905123059 75 260 6.0 8.0 0.00 0.00 0.00 91 1016.1
20260905121535 74 296 5.0 8.0 0.00 0.00 0.00 92 1016.1
20260905120034 74 284 5.0 7.0 0.00 0.00 0.00 94 1015.8
20260905114534 73 288 4.0 6.0 0.00 0.00 0.00 94 1015.7
20260905113035 73 277 4.0 7.0 0.00 0.00 0.00 94 1015.5
20260905111537 73 273 4.0 6.0 0.00 0.00 0.00 94 1015.4
20260905110035 73 280 5.0 8.0 0.00 0.00 0.00 93 1015.3
20260905104531 74 271 6.0 8.0 0.00 0.00 0.00 93 1015.1
20260905103043 74 279 6.0 8.0 0.00 0.00 0.00 92 1015.0
20260905101534 75 279 7.0 9.0 0.00 0.00 0.00 92 1015.0
20260905100047 75 304 5.0 8.0 0.00 0.00 0.00 92 1015.2
20260905093034 75 309 3.0 5.0 0.00 0.00 0.00 93 1015.1
20260905084534 76 277 6.0 8.0 0.00 0.00 0.00 93 1015.1
20260905083034 76 288 4.0 7.0 0.00 0.00 0.00 93 1015.1
20260905074537 77 279 2.0 6.0 0.00 0.00 0.00 91 1015.5
20260905073035 78 242 3.0 4.0 0.00 0.00 0.00 90 1015.5
20260905071534 78 0 0.0 0.0 0.00 0.00 0.00 90 1015.6
20260905063034 78 154 2.0 6.0 0.00 0.00 0.00 89 1015.7
20260905061532 80 155 3.0 6.0 0.00 0.00 0.00 84 1015.7
20260905060048 80 15 4.0 5.0 0.00 0.00 0.00 85 1015.6
20260905053036 80 331 3.0 5.0 0.00 0.00 0.00 86 1015.8
20260905051548 81 298 3.0 5.0 0.00 0.00 0.00 84 1015.8
20260905050039 82 280 4.0 6.0 0.00 0.00 0.00 82 1015.8
20260905043038 84 239 3.0 6.0 0.00 0.00 0.00 74 1016.0
20260905041536 85 199 3.0 5.0 0.00 0.00 0.00 69 1016.3
20260905034539 85 126 0.0 3.0 0.00 0.00 0.00 73 1016.5
20260905033035 85 95 1.0 3.0 0.00 0.00 0.00 76 1016.5
20260905030035 85 67 4.0 6.0 0.00 0.00 0.00 75 1016.7
20260905024534 86 72 5.0 8.0 0.00 0.00 0.00 74 1016.7
20260905023035 86 67 5.0 7.0 0.00 0.00 0.00 74 1016.9
20260905020048 86 79 4.0 5.0 0.00 0.00 0.00 74 1016.7
20260905014537 87 63 4.0 5.0 0.00 0.00 0.00 72 1016.8
20260905010039 89 45 3.0 6.0 0.00 0.00 0.00 65 1016.6
20260905004535 90 45 3.0 6.0 0.00 0.00 0.00 62 1016.5
20260905000039 91 173 4.0 6.0 0.00 0.00 0.00 55 1016.0
20260904234536 91 167 4.0 5.0 0.00 0.00 0.00 55 1015.9
20260904233050 92 76 1.0 3.0 0.00 0.00 0.00 55 1015.8
20260904223037 94 165 3.0 7.0 0.00 0.00 0.00 51 1015.5
20260904221535 94 168 1.0 5.0 0.00 0.00 0.00 51 1015.6
20260904214535 94 199 2.0 7.0 0.00 0.00 0.00 50 1015.6
20260904211533 94 155 7.0 13.0 0.00 0.00 0.00 50 1015.7
20260904210037 94 143 3.0 7.0 0.00 0.00 0.00 52 1015.7
20260904201542 94 165 4.0 9.0 0.00 0.00 0.00 52 1016.2
20260904200036 93 167 5.0 11.0 0.00 0.00 0.00 53 1016.3
20260904194536 94 156 5.0 11.0 0.00 0.00 0.00 53 1016.6
20260904193035 93 150 5.0 12.0 0.00 0.00 0.00 51 1017.1
20260904191539 93 126 4.0 9.0 0.00 0.00 0.00 54 1017.4
20260904190035 92 121 5.0 11.0 0.00 0.00 0.00 54 1017.8
20260904184541 92 142 7.0 12.0 0.00 0.00 0.00 54 1017.6
20260904181539 92 163 3.0 9.0 0.00 0.00 0.00 56 1017.8
20260904180043 91 184 3.0 8.0 0.00 0.00 0.00 60 1018.1
20260904171543 90 244 2.0 5.0 0.00 0.00 0.00 64 1018.4
20260904170034 90 73 3.0 8.0 0.00 0.00 0.00 65 1018.6